Find Starlink 30950

NORAD ID: 58440 Int'l Des: 2023-183 Owner: SPXS Country: US Constellation: starlink operational
LEOCIRCULAR

实时位置

正在加载3D地球...

关于 Starlink 30950

正在加载描述...

即将过境

Passes for default location (London). Set your location on the main map for personalized predictions.

高度历史

Loading altitude history...

两行轨道根数

1 58440U 23183D 26125.31761653 -.00002430 00000-0 -78782-4 0 9993
2 58440 43.0028 245.3255 0000568 276.3774 83.7013 15.27599081137696
Epoch: May 5, 2026 • Age: 21 hours

当前状态

高度 492.2 km
速度 7.62 km/s
星下点 -33.64°S, 165.77°E
发射日期 Nov 28, 2023
运行时间 2.4 years
类型 internet

技术详情

分类 Payload
质量 730.00 kg
干质量 700.00 kg
总质量 730.00 kg
长度 0.30 m
直径 4.10 m
跨度 29.00 m
形状 Box + pan
制造商 SPXS
平台类型 Starlink V2M
阶段状态 In Orbit
所有者/国家 SPXS/US

Most Searched